Location: Bemmer
(51.5498°N, 5.6249°E)
Time: 12:26:41
(UTC+00:00)

PSLV R/B - Pass Details

Date: 03 March 2021
Orbit: 566 x 599 km, 98.2° (Epoch: 10 April)

Event Time Altitude Azimuth Distance (km) Brightness Sun altitude
Rises 18:32:04 0° 14° (NNE) 2,814 7.3 -11.7°
Reaches altitude 10° 18:34:14 10° 15° (NNE) 1,904 6.5 -12.1°
Maximum altitude 18:38:22 89° 108° (ESE) 582 3.9 -12.7°
Drops below altitude 10° 18:42:26 10° 196° (SSW) 1,872 6.6 -13.3°
Sets 18:44:33 0° 196° (SSW) 2,761 7.5 -13.7°
